Location: Winthrop
(48.4780°N, 120.1850°W)
Time: 15:48:51
(UTC-07:00)

Vanguard 3 - Pass Details

Date: 11 February 2023
Orbit: 508 x 3249 km, 33.3° (Epoch: 22 March)

Event Time Altitude Azimuth Distance (km) Brightness Sun altitude
Rises 20:27:43 0° 258° (WSW) 4,169 11.6 -32.1°
Reaches altitude 10° 20:30:35 10° 246° (WSW) 3,537 10.9 -32.5°
Maximum altitude 20:38:22 29° 191° (SSW) 3,145 10.0 -33.7°
Enters shadow 20:41:17 26° 172° (S) 3,531 10.1 -34.2°
